Tracking 34719 objects as of 13-Jul-2026
HD Live streaming from Space Station
objects crossing your sky now

SYRACUSE 4A

Track SYRACUSE 4A now!


NORAD ID: 49333
Int'l Code: 2021-095B
Perigee: 35,788.1 km
Apogee: 35,800.5 km
Inclination: 0.0 °
Period: 1,436.1 minutes
Semi major axis: 42165 km
RCS: Unknown
Launch date: October 24, 2021
Source: France (FR)
Launch site: FRENCH GUIANA (FRGUI)
Your satellite tracking list
Your tracking list is empty




NASA's NSSDC Master Catalog

Two Line Element Set (TLE):
1 49333U 21095B   26193.78586130  .00000000  00000-0  00000+0 0  9997
2 49333   0.0259  51.6238 0001465  56.4627 151.0080  1.00269783 18203
Source of the keplerian elements: AFSPC